Regional Weather Roundup
Issued by NWS Wakefield, VA

Home | Current Version | Previous Version | Text Only | Print | Product List | Glossary Off
Versions: 1 2 3 4 5 6 7 8 9 10 11 12 13 14 15 16 17 18 19 20 21 22 23 24 25 26 27 28 29 30 31 32 33 34 35 36 37 38 39 40 41 42 43 44 45 46 47 48 49 50

000
ASUS41 KAKQ 182016
RWRAKQ

REGIONAL WEATHER ROUNDUP
NATIONAL WEATHER SERVICE WAKEFIELD VA
400 PM EDT MON SEP 18 2017

Note: "fair" indicates few or no clouds below 12,000 feet with no
significant weather and/or obstructions to visibility. * = Denotes
station may not report precipitation (e.g., rain,snow,etc.),
thunder or fog.

VAZ042-051-052>054-056-182100-
NORTHERN VIRGINIA

CITY           SKY/WX    TMP DP  RH WIND       PRES   REMARKS
WASH NATIONAL  CLOUDY    75  69  81 NE12      30.06F
DULLES         PTSUNNY   79  66  64 NE7       30.05F
FORT BELVOIR   PTSUNNY   75  67  75 CALM      30.05F
QUANTICO       CLOUDY    76  70  82 E10       30.06S
FREDERICKSBRG* PTSUNNY   76  69  77 NE9       30.04S
STAFFORD*      CLOUDY    76  69  77 E8        30.09S
WARRENTON      PTSUNNY   82  60  46 NE9       30.04F
CULPEPER*      MOSUNNY   82  66  57 NE6       30.04F
MANASSAS*      CLOUDY    78  67  68 E9        30.05S
LEESBURG*      PTSUNNY   81  68  65 E9        30.06F
WINCHESTER     MOSUNNY   79  63  57 E9        30.05F
FRONT ROYAL*   MOCLDY    79  64  61 NE7       30.05S
LURAY*         PTCLDY    81  63  54 E3        30.04F
$$

VAZ048-049-060>072-079>083-182100-
CENTRAL AND SOUTH CENTRAL VIRGINIA

CITY           SKY/WX    TMP DP  RH WIND       PRES   REMARKS
RICHMOND       MOSUNNY   80  68  66 N12       30.01F
CHESTERFIELD*  NOT AVBL
PETERSBURG*    PTSUNNY   75  66  74 N7G17     30.02S
HANOVER        MOSUNNY   76  68  76 VRB3      30.03F
TAPPAHANNOCK*  MOSUNNY   82  64  55 N7        30.01F
QUINTON*       FAIR      78  69  72 N9G18     29.99F
CHARLOTTSVILLE MOSUNNY   82  66  58 NE7       30.03F
GORDONSVILLE*  MOCLDY    78  67  69 E6        30.03F
ORANGE*        CLOUDY    79  64  61 NE5       30.03F
LOUISA*        CLOUDY    81  64  57 NE6       30.03F
BUMPASS*       CLOUDY    77  68  73 CALM      30.04S
FARMVILLE*     CLOUDY    82  69  64 NE9       30.01F
CREWE*         CLOUDY    78  67  68 N3        30.02S
FORT PICKETT*  CLOUDY    72  72 100 NE7       30.03R
CHASE CITY*    CLOUDY    82  67  62 CALM      30.01F
CLARKSVILLE*   CLOUDY    79  64  61 N5        30.01S
SOUTH HILL*    CLOUDY    75  69  81 N7        30.07S
LAWRENCEVILLE* FAIR      74  71  92 N5        30.01S
EMPORIA*       MOSUNNY   77  68  73 N10       30.00S
$$

VAZ088>098-182100-
SOUTHEAST VIRGINIA

CITY           SKY/WX    TMP DP  RH WIND       PRES   REMARKS
NORFOLK        LGT RAIN  75  73  93 N14G24    29.95F
VIRGINIA BEACH CLOUDY    76  69  79 NE16      29.93F
NORFOLK NAVAL  LGT RAIN  77  69  76 N18G26    29.97F
WEST POINT*    PTSUNNY   79  66  65 N7        30.00F
SALUDA*        CLOUDY    77  71  79 N9        29.98F
NEWPORT NEWS   CLOUDY    79  69  71 N10       29.96F
LANGLEY AFB    PTSUNNY   79  70  73 NE15G21   29.95F
FORT EUSTIS    CLOUDY    83  69  62 N12       29.94F
WILLIAMSBURG*  CLOUDY    84  72  65 N6        29.98F
HR EXEC AP*    CLOUDY    78  70  76 N9        29.96F
FRANKLIN*      PTSUNNY   80  67  65 N8        29.96F
US460-WAKEFLD  MOSUNNY   80  69  69 NE7       29.97F
$$

VAZ020-022-025-037-045-182100-
WEST CENTRAL AND SOUTHWEST VIRGINIA

CITY           SKY/WX    TMP DP  RH WIND       PRES   REMARKS
STAUNTON*      CLOUDY    75  64  67 E3        30.08F
WAYNESBORO*    CLOUDY    76  66  70 NE6       30.07F
HOT SPRINGS VA MOSUNNY   71  53  52 CALM      30.17F
LYNCHBURG      MOSUNNY   80  63  55 NE10      30.04F
DANVILLE       MOSUNNY   81  65  58 E8        30.01F
SOUTH BOSTON*  FAIR      81  65  58 N5        30.01F
MARTINSVILLE   MOSUNNY   82  63  52 E6        30.05F
ROANOKE        PTSUNNY   80  63  55 SE12      30.05F
BLACKSBURG     CLOUDY    78  60  55 CALM      30.11F
DUBLIN*        PTSUNNY   80  59  48 N6        30.10S
MARION*        SUNNY     77  56  47 NW5       30.13S
HILLSVILLE*    MOSUNNY   77  49  37 CALM      30.10S
RICHLANDS*     FAIR      76  56  49 N5        30.13F
WISE*          MOSUNNY   77  55  47 N9        30.13F
ABINGDON*      MOSUNNY   78  56  47 NW6       30.09F
$$

MDZ021>025-VAZ099-100-182100-
SOUTHERN MARYLAND AND THE DELMARVA PENINSULA

CITY           SKY/WX    TMP DP  RH WIND       PRES   REMARKS
PATUXENT RIVER PTSUNNY   78  70  76 N15       30.01F
BAY BRIDGE APT SUNNY     75  70  83 N12G18    30.04F
LEONARDTOWN    PTSUNNY   77  66  69 N5        30.04S
DOVER          CLOUDY    77  68  73 NE10      30.01F
GEORGETOWN     CLOUDY    76  68  76 NE15      30.03S
EASTON         PTSUNNY   79  68  69 NE7       30.06S
CAMBRIDGE      CLOUDY    79  70  73 NE8       30.01S
SALISBURY      CLOUDY    76  69  79 N13       30.00F
OCEAN CITY     CLOUDY    74  70  87 NE13G21   29.99F
WALLOPS ISLAND CLOUDY    73  71  93 N12G17    29.99S
ACCOMACK*      CLOUDY    76  70  82 N10G18    29.97F
$$

NCZ012>017-030>032-182100-
NORTH CENTRAL AND EASTERN NORTH CAROLINA

CITY           SKY/WX    TMP DP  RH WIND       PRES   REMARKS
ROANOKE RAPIDS FAIR      77  72  83 MISG      29.98F
RALEIGH        PTSUNNY   83  64  52 NE10      29.99F
ELIZABETH CITY PTSUNNY   79  74  84 N15       29.92F
AHOSKIE*         N/A     80  67  65 N6        29.95F
EDENTON*       MOSUNNY   83  69  62 N16       29.93F
CURRITUCK*     LGT RAIN  74  72  92 N14G23    29.94S
KILL DEVIL HLS CLOUDY    74  70  85 N10G16    29.89S
MANTEO         CLOUDY    75  71  87 N17G25    29.91S
CAPE HATTERAS  CLOUDY    78  74  87 N10G21    29.86F
TARBORO*       NOT AVBL
GOLDSBORO      MOSUNNY   80  73  78 N12       29.95F
WASHINGTON     MOSUNNY   84  64  50 N13       29.93F
GREENVILLE     PTSUNNY   81  68  65 N12       29.96F
NEW BERN       MOSUNNY   84  66  54 N10       29.92F
WILMINGTON     MOSUNNY   82  68  62 N14       29.93F
$$

VAZ048-182100-
ELSEWHERE

CITY           SKY/WX    TMP DP  RH WIND       PRES   REMARKS
HARRISBURG PA  CLOUDY    75  64  68 CALM      30.08S
BALTIMORE      CLOUDY    72  70  93 N5        30.06F FOG
ANNAPOLIS      MOSUNNY   76  72  87 N9        30.04F
ANDREWS AFB    MOSUNNY   73  68  83 N8        30.05S
PHILADELPHIA   PTSUNNY   77  67  71 NE12      30.05F
HENDERSON NC   SUNNY     76  62  60 N6        30.01F
GREENSBORO     PTSUNNY   81  64  56 N6        30.02F
ROCKY MOUNT    CLOUDY    78  70  76 N16       29.98F
$$

VAZ100-182100-
MARINE

STATION/POSITION TIME  TEMP    WIND        PRES    WAVE   SWELL
                       AIR SEA DIR/SP/G            HT/PER HT/PER
                 (UTC) (F)     (DEG/KT/KT) (MB)    (FT/S) (FT/S)
BRANDYWINE LGT   1942   75      50/ 20/ 23 1016.8F
CAPE MAY NJ      1948   75 74   60/ 13/ 17 1016.0F
LEWES DE         1948   74 73   60/ 16/ 19 1016.2F
15NM E FENWICK I 1950   72 72   20/ 19/ 23 1015.4F   7/ 5   3/11
OCEAN-CITY-INLET 1948   73 75   40/ 12/ 17 1016.0F
WACHAPREAGUE VA  1948   74 78   20/  9/ 12 1014.8F
THOMAS POINT MD  2000   73 76  360/ 14/ 15   N/A
GOOSES REEF MD   2000   74 75   30/ 17/ 19 1017.4    3
COVE POINT MD    1948   73     360/ 12/ 19 1017.2F
SOLOMONS ISLAND  1942   75 77  360/ 10/ 13 1016.0F
BISHOPS HEAD MD  1948   77 78   50/ 12/ 15 1016.0F
PINEY POINT MD   1948           30/  9/ 11   N/A
POTOMAC MD       2000   76 76   10/ 12/ 16 1015.2
CAMBRIDGE MD     1948   78 76              1017.1F
LEWISETTA VA     1948   77 77   20/  7/ 10 1015.9F
RAPPAHANNOCK LGT 1948           30/ 20/ 23 1015.4F
STINGRAY PT      2000   76 76   40/ 17/ 21 1015.2    2/ 3
YORK RVR RNG VA  1948   77      20/ 20/ 22 1014.8F
YORKTOWN VA      1948   77 76  360/ 14/ 20 1014.2F
JAMESTOWN VA     2000      78  360/ 10/ 14   N/A     0
DOMINION TERM VA 1948   78      20/ 10/ 14 1014.5F
KIPTOPEKE VA     1948      76   50/ 10/ 15   N/A
CHES BAY BRIDGE  1948   75 76   10/ 20/ 24 1013.9F
CAPE HENRY VA    1948   74      20/ 20/ 24   N/A
WILLOUBY STN VA  1942   76      10/ 15/ 19 1014.4F
S CRANEY ISL VA  1948   76      20/ 16/ 19 1014.0F
CAPE HENRY BUOY  2000      74                N/A     7/ 5   3/13
1ST LANDING BUOY 2000   75 75              1014.3    4/ 4
64NM E OF VA BCH 1950   74 73   10/ 19/ 23 1011.6F  11/14  10/14
DUCK PIER NC     1948   74 76   10/ 20/ 24 1012.0F
44100 DUCK FRF   1935      74                N/A    11/13   7/13
44056 DUCK FRF   1930      76                N/A    10/13   5/13
OREGON INLET NC  1942   75 76  350/ 16/ 21 1011.9R
HATTERAS NC      1948   76 78  360/ 23/ 27 1011.3F
DIAMOND SHLS NC  1950   76 82  360/ 25/ 31 1009.7F  12/13  10/13
CAPE LOOKOUT NC  2000   81     360/ 17/ 20 1011.5F
$$



USA.gov is the U.S. government's official web portal to all federal, state and local government web resources and services.